Wind_Speed
13 13 13 14 14 15 15 15 16 16 17 19 21 22 23 22 22 22 22 21 21 21 21 22 23 23 24 24 25 25 26 27 27 28 29 29 30 30 31 31 31 32 32 33 33 34 34 34 33 33 32 32 32 33 33 33 33 34 34 33 33 33 33 33 32 31 31 32 34
18 15 14 13 14 15 16 16 16 17 17 19 20 21 22 22 22 22 22 22 22 22 22 22 23 23 24 25 25 26 26 27 28 28 29 30 31 31 32 32 32 32 33 33 33 33 33 33 32 32 32 31 32 32 33 33 34 34 35 35 34 33 32 33 33 32 31 31 32
27 23 19 17 15 14 15 16 17 18 18 19 20 21 21 22 22 22 23 23 24 24 25 25 25 25 25 25 26 26 27 28 28 29 29 30 31 32 32 33 33 34 34 34 34 34 33 33 32 31 31 31 31 31 32 33 33 34 35 35 34 33 32 32 32 32 32 30 30
31 30 27 25 22 20 18 17 17 18 19 20 21 21 22 22 22 23 23 24 25 25 26 27 27 27 27 27 27 27 28 28 28 29 30 30 31 31 32 33 33 34 34 34 35 34 34 34 33 32 31 31 32 32 32 32 32 33 34 34 33 33 33 33 31 33 33 31 31
30 30 29 27 27 26 24 23 20 19 18 17 18 19 20 21 22 22 23 24 24 25 26 27 28 29 30 30 30 30 30 30 29 30 30 30 31 31 32 32 33 34 34 35 35 35 35 35 33 32 32 32 32 33 33 33 33 33 33 33 32 33 33 32 32 32 32 31 30
29 29 29 28 29 28 27 26 25 24 23 21 19 18 19 19 19 20 21 22 23 25 26 27 28 29 29 30 31 31 32 32 31 31 31 31 32 32 32 32 33 33 34 34 35 35 36 35 34 33 33 33 33 34 34 34 34 34 34 34 33 33 33 33 32 33 34 33 32
28 28 29 29 30 29 28 27 27 26 26 25 24 24 24 24 23 22 22 21 22 23 24 25 26 27 29 29 30 31 31 31 31 32 32 32 32 32 33 33 33 34 34 34 35 35 36 36 35 34 33 34 34 34 35 35 35 35 35 35 35 33 33 34 34 33 34 35 34
29 29 30 30 30 30 29 28 27 27 26 26 27 27 27 27 27 26 25 24 23 23 24 24 24 25 27 28 30 31 31 32 32 32 32 32 32 33 33 34 34 34 35 35 35 35 36 35 35 33 32 33 34 35 36 36 37 37 36 36 36 36 36 35 35 34 35 37 36
30 30 31 31 31 31 30 28 27 26 27 27 28 28 28 28 28 28 27 26 26 26 26 25 26 26 26 27 28 29 31 32 32 33 33 33 33 33 34 34 34 35 35 35 35 35 35 35 34 33 32 32 33 35 37 37 37 38 38 38 38 38 38 37 37 36 36 38 38
31 31 31 30 31 30 29 29 27 27 28 28 29 29 29 28 29 29 29 28 28 28 27 27 27 27 27 27 27 28 29 30 32 32 33 33 33 34 34 34 35 35 35 36 35 35 35 35 34 34 34 34 34 35 36 36 37 37 38 38 39 40 40 40 40 39 39 40 40
30 30 30 30 30 30 29 28 27 27 28 29 30 30 30 29 30 30 30 29 29 29 28 28 28 28 28 28 28 28 28 29 30 32 33 34 34 34 34 34 35 35 36 36 36 35 35 34 34 34 35 35 35 36 37 37 37 37 37 37 39 41 41 42 42 41 41 41 42
29 29 30 29 29 29 28 28 27 27 28 29 30 30 30 30 30 30 30 30 30 30 29 29 28 28 28 28 28 28 28 28 29 30 32 34 35 35 35 35 36 36 37 37 36 35 34 34 34 34 35 35 35 35 35 36 37 37 37 37 37 39 40 41 43 43 43 42 43
28 29 29 29 29 29 28 28 27 27 28 30 30 30 30 30 30 31 31 31 30 30 29 29 28 27 27 28 29 30 29 28 28 28 29 31 33 35 35 36 36 36 37 37 37 36 36 35 35 35 35 35 35 34 34 34 35 36 37 37 38 38 40 41 42 43 44 44 43
28 29 29 29 30 29 29 29 27 27 29 30 30 30 30 30 30 31 31 31 30 30 30 30 29 28 28 28 30 31 31 30 30 29 29 28 29 30 33 35 36 37 38 38 38 38 38 37 37 37 37 37 37 36 36 35 35 36 37 38 39 41 42 42 42 43 43 43 43
29 29 30 30 30 30 29 29 28 28 29 30 30 30 30 30 30 31 31 31 31 31 31 31 30 29 29 29 30 31 31 31 31 31 31 31 30 28 28 28 29 31 33 35 37 39 40 40 40 40 40 40 40 41 40 40 39 39 39 40 41 43 44 45 43 42 42 42 41
30 30 30 30 30 30 30 29 28 28 29 31 30 30 30 30 31 31 31 31 32 32 32 32 31 30 30 30 30 31 31 31 31 30 31 31 31 31 30 28 26 25 25 25 27 30 34 38 41 43 43 43 43 44 44 44 44 43 43 43 44 45 46 47 45 43 41 41 41
30 30 30 30 30 30 30 29 29 29 30 31 31 31 31 31 31 32 32 32 32 32 32 32 32 31 31 31 31 31 31 31 31 31 31 31 31 31 31 30 28 27 26 26 25 25 25 28 31 35 39 43 45 46 46 46 46 46 45 45 45 46 47 48 48 46 43 42 41
30 30 30 30 30 30 30 30 29 29 30 30 30 30 31 31 32 32 32 32 32 32 33 33 32 32 32 32 32 32 32 32 32 32 32 32 31 31 31 31 29 28 28 27 26 27 27 28 29 29 30 33 37 41 45 48 48 47 47 47 47 47 47 48 49 48 46 43 43
30 30 30 30 30 29 29 29 29 29 29 29 29 30 30 31 31 31 32 32 32 32 32 32 32 32 32 33 32 32 32 32 33 32 32 32 31 31 31 31 30 29 28 28 28 28 29 30 31 32 32 32 32 33 35 40 44 47 48 48 48 48 48 49 50 49 48 46 45
29 29 29 29 29 29 29 29 29 29 29 29 29 30 30 30 30 31 31 31 32 32 32 31 31 31 31 32 32 31 31 31 31 31 32 31 31 30 30 30 29 28 28 27 28 29 30 31 32 32 33 33 34 34 34 34 35 38 42 46 49 49 49 50 51 51 50 48 47
29 28 28 28 28 28 28 28 28 29 29 29 30 30 30 30 30 30 30 30 31 31 31 31 30 29 30 30 30 29 29 29 29 30 30 30 30 30 30 30 29 28 28 28 28 29 31 32 32 33 34 34 35 35 35 35 35 35 36 38 43 47 50 51 52 52 51 50 49
28 28 27 28 27 27 27 27 28 28 29 29 29 30 30 30 30 30 29 29 30 30 31 30 29 28 28 28 28 28 28 28 28 28 28 29 29 30 31 30 29 29 28 28 29 30 32 33 34 34 34 34 36 37 38 38 37 36 36 35 37 41 46 50 52 52 52 52 52
28 28 27 27 27 27 27 28 28 28 28 29 29 30 30 30 29 29 29 30 29 30 30 29 29 28 28 27 27 28 28 29 28 28 28 28 28 29 30 30 29 28 28 28 29 31 33 34 34 34 34 34 36 37 38 39 39 38 36 36 36 37 40 45 49 52 52 52 53
28 28 27 27 28 28 28 28 28 28 28 29 29 29 29 29 29 29 29 29 29 29 29 29 29 28 27 27 27 28 28 29 29 29 28 28 28 29 29 29 28 27 26 27 28 31 33 33 34 34 34 34 34 35 36 37 37 37 37 37 36 36 37 39 44 48 50 51 51
29 29 29 29 29 29 29 29 29 29 29 29 29 29 29 29 29 29 29 29 29 29 29 28 28 28 27 27 27 27 28 29 29 30 30 29 29 29 29 28 27 27 27 27 29 30 32 33 33 34 34 34 34 34 35 35 35 35 36 36 36 35 35 35 38 43 46 48 50
30 30 30 31 31 31 30 30 30 29 29 29 29 30 30 30 29 29 30 30 29 29 29 28 28 28 28 27 27 28 28 29 29 30 30 30 31 31 30 28 28 27 27 28 30 31 32 33 33 34 34 34 33 33 32 32 32 32 33 33 33 33 33 32 33 37 43 47 49
31 31 32 33 33 33 33 32 32 32 32 31 31 31 31 30 30 30 30 30 30 30 29 28 28 28 27 27 28 28 28 28 29 29 29 30 31 31 31 30 29 28 29 30 31 33 33 34 34 35 35 35 34 32 31 30 30 30 30 30 30 30 31 31 31 31 35 42 48
32 32 34 35 35 35 35 35 35 35 34 33 33 32 32 31 31 31 31 31 31 30 29 29 28 28 27 27 28 28 28 28 28 28 28 29 30 31 31 30 28 27 29 30 32 33 34 35 35 36 36 36 35 33 30 29 29 29 28 28 28 28 28 29 30 30 30 30 35
32 33 33 34 34 35 35 35 35 35 35 34 34 33 33 32 32 31 31 31 31 30 29 28 28 28 27 27 28 28 28 28 28 28 28 29 30 30 31 32 31 29 28 30 31 32 34 35 36 37 37 37 35 33 31 29 28 28 27 26 27 27 28 29 29 29 30 30 31
31 31 32 32 32 32 32 32 32 32 32 32 32 32 32 31 31 31 31 30 30 29 29 29 29 28 28 28 27 28 28 28 28 28 28 29 29 30 30 31 31 30 29 29 30 31 33 34 35 36 37 38 37 34 31 30 29 28 27 27 27 29 30 31 31 30 30 30 32
28 29 29 29 28 28 28 28 28 28 28 28 29 29 29 29 29 29 28 28 28 28 28 29 29 29 29 28 28 28 28 28 27 27 28 29 29 30 30 31 30 30 29 29 30 31 32 33 34 35 37 38 37 35 33 31 30 29 28 27 28 30 31 32 31 31 32 32 32
26 26 27 26 26 26 27 26 26 26 26 26 27 27 27 27 27 27 27 26 26 27 28 29 29 30 29 29 29 29 29 28 27 27 28 28 29 30 30 30 29 29 29 29 31 32 32 33 34 34 36 37 36 34 33 32 31 29 28 28 29 30 31 32 32 33 33 33 31
25 26 26 26 26 26 26 26 26 25 25 25 26 26 27 27 27 27 26 26 26 26 27 28 29 29 29 30 30 30 30 29 29 29 29 29 29 30 30 30 29 28 29 30 32 33 33 33 34 34 35 36 34 33 33 33 32 30 29 29 30 30 31 32 33 33 33 33 32
25 26 26 26 26 26 27 27 26 26 26 26 26 27 27 27 27 27 27 27 26 26 26 27 27 27 28 29 30 30 31 30 30 30 30 30 30 30 30 29 29 29 30 31 32 33 34 34 34 35 35 35 33 32 32 33 32 31 31 31 31 32 32 33 34 34 34 33 32
26 27 27 27 27 27 28 28 27 27 26 27 27 28 28 28 28 28 28 27 27 27 27 27 26 27 27 28 29 30 30 31 32 32 31 31 31 31 31 30 30 30 31 32 33 34 34 35 35 35 36 34 32 31 31 32 31 31 31 31 32 33 33 33 33 34 34 34 33
27 27 28 28 28 28 28 28 28 27 27 28 28 29 29 29 28 28 28 28 28 28 28 27 27 27 28 29 30 30 30 31 32 33 33 32 32 33 32 32 31 31 32 32 33 34 35 35 35 36 36 34 32 31 31 31 30 30 30 31 31 32 33 33 33 33 34 34 33
27 27 28 28 28 28 28 28 28 28 28 29 29 29 29 29 28 28 28 28 28 28 28 28 28 28 29 30 30 30 30 31 32 33 33 33 33 34 33 33 32 32 32 33 34 35 35 36 36 36 36 34 32 32 31 30 29 29 30 30 30 31 31 31 31 32 32 33 34
26 27 27 27 28 28 28 28 28 28 29 29 30 29 29 29 28 28 28 28 28 28 28 28 28 28 29 30 30 30 30 30 31 32 33 34 34 34 34 33 33 32 33 33 34 35 36 36 36 37 36 34 33 32 31 30 29 29 29 29 30 31 31 30 29 29 30 32 34
27 27 27 27 27 28 27 27 27 27 28 29 29 30 29 28 28 27 27 27 27 27 27 27 27 28 29 29 29 29 29 30 31 32 33 33 34 34 34 33 33 33 33 34 35 36 36 36 36 37 37 35 33 32 30 29 29 29 29 30 30 32 32 30 29 28 28 30 32
27 27 27 27 27 27 27 27 26 27 27 28 29 29 29 28 27 27 27 27 26 26 26 25 26 27 28 28 28 29 29 30 31 31 32 33 34 34 33 32 32 33 33 34 35 35 36 36 36 37 37 35 34 32 31 29 29 29 30 31 31 32 32 31 30 28 27 28 30
26 27 27 27 27 27 27 26 27 27 27 28 28 28 28 28 27 27 27 27 26 26 25 25 26 27 28 28 27 28 29 31 31 32 33 34 34 33 32 32 32 33 34 34 35 35 35 36 36 37 38 37 36 33 31 29 29 29 31 32 32 32 32 32 30 29 27 27 28
Wind_Direction
316 306 298 290 284 279 277 276 276 276 276 276 276 276 277 277 277 277 275 272 269 266 263 261 259 257 256 254 252 251 249 248 247 246 246 246 245 245 245 245 245 245 245 245 245 244 244 244 244 245 245 246 248 249 249 250 250 251 252 253 254 254 254 253 253 250 246 242 240
350 334 317 303 292 284 279 277 277 277 278 279 279 280 281 282 282 281 280 279 278 276 273 271 267 265 262 259 257 254 252 251 249 248 247 247 247 247 247 247 247 246 246 246 246 245 244 244 243 243 244 245 246 247 248 248 248 249 251 252 253 254 255 254 254 253 250 245 242
13 6 356 342 326 311 297 288 282 280 280 280 282 283 285 286 286 285 284 283 282 280 280 278 276 273 270 267 264 260 257 255 253 251 250 249 249 248 248 248 248 248 248 247 247 246 245 244 243 243 243 244 244 245 246 247 247 247 248 250 251 252 253 254 254 253 252 249 244
17 17 15 10 2 353 340 324 310 298 291 286 284 284 285 287 288 288 287 285 284 282 281 280 279 278 277 275 272 268 265 261 258 255 254 252 251 250 250 250 249 249 248 248 248 247 246 245 244 244 244 244 244 244 245 245 246 246 247 248 249 250 251 252 253 252 251 251 247
13 14 15 15 14 13 10 3 353 342 329 315 303 296 293 292 292 291 291 290 288 286 284 283 282 281 279 278 276 274 271 268 265 261 259 257 255 254 253 252 251 250 250 249 249 249 248 247 246 245 245 245 245 245 245 245 245 245 246 247 247 247 248 250 251 251 251 251 249
9 10 11 12 13 13 14 13 12 10 8 2 351 341 332 325 318 312 307 303 298 295 292 289 287 285 283 281 278 276 274 272 269 266 264 262 260 258 257 255 254 253 252 251 250 250 249 248 247 247 247 247 247 246 246 245 245 245 246 246 246 246 247 248 249 249 250 250 249
8 9 10 11 11 11 11 11 12 13 14 13 9 5 1 358 352 346 338 330 321 314 308 302 298 294 290 287 284 281 277 274 271 268 266 265 263 262 260 259 258 256 255 253 252 251 250 249 248 247 247 248 248 248 247 246 246 245 245 246 246 246 246 247 248 248 248 248 248
9 10 10 11 11 11 10 10 10 10 10 9 7 5 4 3 0 357 353 349 343 338 332 325 318 311 304 299 293 288 283 278 275 271 268 266 264 263 262 261 260 259 257 256 254 252 251 250 248 247 247 247 248 249 248 247 246 246 245 245 245 246 246 246 247 247 247 247 247
8 9 10 10 11 11 10 10 10 10 8 6 5 4 3 1 360 358 356 352 348 345 343 339 335 330 324 317 309 300 292 285 279 274 271 268 266 264 263 262 262 260 259 257 256 254 253 251 249 248 247 247 247 248 248 248 247 246 245 245 245 246 245 245 246 246 246 247 247
6 7 8 8 8 9 9 9 10 10 8 6 5 4 4 2 0 359 356 352 349 348 346 344 342 339 335 330 324 316 306 295 286 279 274 270 267 265 264 263 262 261 260 258 257 255 254 253 251 250 249 248 247 247 247 247 247 247 246 246 246 245 245 244 244 245 245 246 246
5 6 6 6 6 7 7 8 8 8 7 6 5 5 4 3 1 359 357 354 352 350 348 347 346 344 340 337 332 327 319 309 298 287 279 273 269 266 264 262 262 261 261 259 258 257 255 254 253 252 251 249 248 247 246 246 246 247 247 247 247 246 244 243 242 242 243 244 245
4 4 5 5 5 6 6 6 6 6 5 5 4 4 3 2 1 359 358 356 354 352 351 350 348 347 345 343 341 337 332 323 312 299 286 277 271 266 263 261 261 260 260 259 258 257 255 254 254 253 253 251 250 248 247 246 246 246 247 247 247 246 244 242 240 240 241 242 243
4 4 4 4 5 5 6 6 5 4 3 3 2 2 1 1 360 359 358 357 356 354 352 352 350 349 348 347 347 347 345 341 333 320 304 290 279 272 267 264 262 261 260 259 258 257 255 253 252 252 253 252 252 250 249 247 246 245 246 247 247 248 247 244 240 238 239 239 240
4 4 4 4 5 5 5 4 4 2 1 0 0 360 359 359 359 359 359 358 356 355 354 353 352 351 350 350 350 352 353 354 352 347 337 323 307 294 284 278 274 270 267 265 263 261 259 256 253 251 251 251 251 251 251 250 248 247 246 246 247 250 251 249 243 238 236 236 237
4 4 4 4 5 5 4 3 2 0 359 359 358 358 358 357 358 358 358 357 357 356 355 355 353 352 351 351 352 353 355 357 357 357 356 352 345 334 323 312 303 294 287 280 274 268 264 261 257 254 252 251 250 251 251 250 250 249 248 248 247 249 251 252 248 242 236 234 234
3 3 3 3 4 4 3 2 0 359 358 357 357 357 357 356 356 357 357 356 356 356 355 355 354 353 352 353 354 354 355 355 356 356 355 355 354 353 351 348 344 337 329 318 305 292 281 273 266 262 258 254 252 251 250 249 249 249 248 247 247 247 248 250 250 246 240 235 234
3 2 2 2 2 2 1 0 359 357 356 356 356 356 356 356 355 355 355 355 355 354 353 354 354 353 353 353 354 355 355 355 355 353 351 349 348 348 348 350 352 353 354 353 348 340 327 311 296 283 273 266 260 256 253 252 251 249 247 246 245 245 245 247 249 247 243 238 236
2 1 1 1 1 360 359 358 357 356 355 354 355 355 355 355 355 354 354 355 354 353 351 352 353 354 354 354 354 355 355 355 354 353 351 348 345 343 342 342 344 348 351 354 356 357 355 350 343 330 314 297 283 273 266 260 256 253 249 247 245 244 244 245 246 246 244 241 238
1 0 0 360 359 358 357 356 355 355 354 353 353 354 354 355 354 354 354 354 353 352 350 350 351 352 353 353 354 354 355 355 353 352 350 348 345 342 340 339 339 341 344 347 349 351 352 351 351 348 343 335 323 309 295 282 271 262 255 250 247 245 244 243 244 244 243 241 240
360 359 358 357 357 356 355 355 354 353 353 353 353 353 353 353 354 354 353 352 351 351 350 349 349 350 351 352 352 352 352 353 352 351 349 348 345 342 340 338 337 337 338 341 344 346 347 346 345 343 341 339 336 332 325 315 301 285 270 258 251 246 243 242 242 242 242 241 241
359 358 356 355 355 355 354 353 353 353 353 353 353 353 352 352 352 352 351 350 350 350 349 348 347 346 347 348 348 347 347 348 349 349 348 347 345 343 341 339 337 336 337 339 341 343 344 344 342 340 338 335 332 330 328 325 319 310 297 279 264 252 246 243 241 241 241 241 241
357 356 355 355 354 354 353 353 353 353 353 353 353 353 352 351 350 350 349 349 348 349 349 347 345 344 344 345 344 343 343 344 345 346 347 346 345 345 344 342 340 338 338 339 340 342 343 342 341 340 337 335 332 330 327 323 320 315 310 300 285 268 255 246 241 240 241 242 242
356 355 355 355 354 354 354 354 354 353 353 353 352 352 351 350 349 349 348 348 347 347 347 346 345 343 343 343 343 343 342 341 342 343 344 345 344 344 344 344 342 340 339 339 340 341 341 340 339 338 337 335 333 330 327 324 320 316 310 304 297 284 269 254 245 241 240 240 241
355 355 355 355 355 355 355 354 354 354 354 353 352 351 350 349 348 348 348 347 347 346 345 345 344 343 342 343 343 344 343 341 340 340 341 342 342 342 343 343 343 341 339 339 339 340 339 338 337 336 335 334 332 329 327 324 321 317 312 306 301 292 280 265 252 244 241 240 240
354 354 354 355 355 355 355 355 355 354 353 352 351 351 350 349 348 348 347 347 346 345 345 344 343 343 342 342 343 343 343 342 340 339 339 339 340 341 341 342 341 340 339 338 338 339 339 338 337 336 335 333 331 328 326 324 321 317 314 310 306 300 290 275 260 249 243 240 239
353 353 354 354 354 355 355 355 354 353 352 352 351 351 350 349 348 348 348 347 346 346 345 344 344 344 343 341 341 342 342 341 340 338 337 337 338 339 340 339 340 339 339 338 338 338 338 338 338 337 335 333 331 328 325 322 319 316 314 313 313 312 308 297 276 257 246 241 238
352 352 352 352 353 353 353 353 353 352 352 351 350 350 349 348 348 348 348 347 347 346 346 346 345 344 342 341 340 340 340 340 338 337 336 336 337 337 337 337 337 337 337 337 338 338 338 338 338 337 336 335 332 329 325 321 318 316 314 312 313 317 321 321 313 293 270 253 244
350 351 351 351 352 352 351 351 351 350 350 349 348 348 347 346 346 347 347 347 347 347 347 346 345 343 342 340 339 339 338 337 337 336 336 336 335 335 335 334 334 334 334 335 336 337 338 338 337 337 337 336 333 330 326 321 318 316 313 310 310 313 318 323 328 327 318 297 273
349 349 349 349 349 348 348 348 348 347 347 346 345 346 345 344 344 344 345 345 345 346 346 345 343 342 341 340 338 338 337 337 336 336 335 335 335 334 333 332 331 330 331 333 335 336 336 337 337 336 336 336 334 331 327 322 319 316 314 312 312 313 315 318 320 324 328 328 320
347 347 346 345 344 343 343 342 342 341 341 342 342 342 342 341 341 341 342 342 342 342 343 342 342 342 341 339 338 338 337 336 336 335 335 335 334 333 332 330 329 328 329 330 332 333 334 335 335 335 336 336 335 332 327 323 320 317 316 315 316 317 318 319 319 320 322 324 327
344 344 343 341 339 338 337 336 336 335 336 337 337 337 337 337 337 338 338 338 338 338 339 340 341 341 341 340 340 339 337 336 336 335 335 334 333 332 331 330 328 327 327 329 330 331 332 333 333 334 335 336 334 332 328 324 320 318 316 317 318 321 322 322 322 321 321 322 323
342 342 341 339 338 337 336 335 334 334 335 335 335 335 335 335 335 336 336 337 336 337 338 339 340 340 341 341 341 340 339 338 337 336 335 333 331 330 330 329 328 328 328 329 329 330 330 331 332 333 334 335 334 331 328 325 322 318 317 317 319 322 324 324 323 322 321 321 320
343 342 342 340 339 338 338 337 337 337 337 337 337 337 337 337 337 338 338 338 338 338 339 339 339 339 339 340 340 340 339 338 337 336 335 333 331 330 329 328 328 328 329 330 330 330 330 330 330 332 333 335 333 331 329 327 323 320 318 318 320 323 324 324 323 322 321 320 320
344 344 343 343 342 341 340 340 340 340 340 340 340 340 340 340 340 340 340 340 339 339 339 339 338 338 337 337 338 337 337 337 337 336 335 334 332 331 329 328 327 328 329 330 331 331 330 330 331 332 334 335 334 331 329 327 325 322 320 319 322 323 324 325 324 323 322 321 320
346 345 345 344 344 343 343 342 342 342 342 341 341 342 343 342 342 341 341 340 339 339 338 338 338 337 337 337 336 336 336 335 336 335 335 334 333 331 330 328 326 327 329 330 331 331 331 331 332 333 335 335 334 332 330 328 325 323 321 321 322 323 324 325 324 324 324 323 322
346 346 346 345 345 344 344 344 344 343 343 343 342 342 343 342 342 341 340 340 340 339 339 338 338 338 338 338 337 336 335 335 334 334 334 334 334 332 330 328 327 327 329 330 331 331 331 332 333 335 336 336 334 332 330 328 326 324 323 322 322 323 324 324 324 324 324 323 323
345 345 345 345 345 345 345 345 345 344 344 344 343 343 342 341 341 340 341 341 340 339 339 338 338 339 338 338 336 335 334 334 333 333 333 334 334 332 330 329 328 328 329 330 330 331 331 332 334 336 337 337 335 333 331 329 327 326 325 323 322 322 323 324 323 323 323 323 323
344 344 345 344 344 344 344 345 345 345 344 343 342 342 342 341 340 341 341 341 340 339 338 337 337 337 337 336 335 334 333 333 333 333 332 332 332 332 330 328 328 328 329 330 330 330 331 332 334 336 338 338 336 333 331 328 327 326 325 324 323 323 323 323 323 322 322 323 324
343 344 344 344 344 343 343 344 344 344 343 342 341 341 341 341 340 340 340 340 340 338 337 336 336 336 336 335 334 333 333 333 334 333 332 331 331 331 330 328 327 328 329 330 330 330 331 332 333 336 338 338 336 334 331 327 326 325 326 326 325 325 324 323 322 322 321 322 324
343 344 344 345 344 344 343 343 343 343 342 342 341 341 341 340 339 339 339 339 339 338 337 335 334 335 335 335 334 333 333 333 334 333 332 331 330 330 329 328 328 328 329 330 330 330 331 332 333 336 338 338 337 335 331 328 326 326 326 327 327 326 324 323 322 321 321 322 323
344 344 344 345 345 344 343 342 342 342 342 342 341 340 339 339 338 338 338 339 339 338 337 335 334 334 335 335 334 333 333 333 333 333 332 331 330 329 329 328 328 328 329 330 330 331 331 332 333 335 337 338 337 335 332 329 327 327 327 327 327 326 324 323 322 321 321 322 322
Height
743 742 742 742 742 741 741 741 741 741 741 740 740 739 738 737 737 736 735 735 734 733 732 732 731 731 731 730 730 730 729 729 728 728 728 728 727 727 727 727 727 727 727 727 727 727 727 727 728 728 728 728 728 727 727 727 727 727 727 727 726 726 726 725 724 724 723 723 722
744 743 743 742 742 741 741 741 740 740 740 740 739 739 738 737 737 736 735 734 734 733 732 732 731 731 730 729 729 728 728 727 727 727 726 726 726 725 725 725 725 725 725 725 725 725 725 725 726 726 726 726 726 725 725 724 725 725 724 724 724 724 723 723 722 722 722 721 720
745 744 743 743 742 742 741 741 740 740 739 739 739 738 737 737 736 736 735 734 734 733 732 732 731 730 730 729 728 728 727 726 726 725 724 724 723 723 723 723 723 723 722 722 722 722 723 723 723 723 723 723 723 722 722 722 722 722 722 721 721 722 721 720 720 719 719 719 718
746 745 744 743 743 742 742 741 740 739 739 738 738 737 737 736 736 735 734 734 733 732 732 731 730 730 729 728 728 727 726 725 725 724 723 722 722 722 721 721 721 721 720 721 720 720 720 721 721 721 721 720 720 719 719 719 719 719 719 718 719 719 718 717 717 717 717 716 716
748 747 746 745 744 742 742 741 740 739 738 737 737 737 736 736 735 734 734 733 732 732 731 731 730 729 728 727 727 726 725 724 724 723 722 721 720 720 720 719 719 718 718 718 718 718 718 718 719 718 718 718 717 717 716 716 717 716 716 716 716 716 715 715 715 715 715 714 713
749 748 747 746 744 743 742 741 740 739 738 737 737 736 736 735 734 734 733 732 731 731 730 730 729 728 727 726 725 725 724 723 722 722 721 720 719 718 718 717 717 717 716 716 716 716 716 716 716 716 716 715 715 714 713 714 713 713 713 713 712 712 712 712 712 712 712 711 711
751 750 748 747 745 744 743 742 740 739 738 737 737 736 735 734 733 732 732 731 730 729 729 728 727 727 726 725 724 723 722 721 721 720 719 718 717 717 716 715 715 714 714 714 713 713 713 713 713 713 712 712 712 711 711 711 711 710 710 709 709 709 709 709 708 709 709 708 708
752 750 749 747 746 744 743 742 741 740 739 738 737 736 735 734 733 732 731 730 729 729 728 727 726 725 724 723 722 721 721 720 718 718 717 716 715 715 714 713 713 712 712 711 711 711 711 711 710 710 709 709 709 708 708 708 707 707 706 706 706 706 706 706 705 706 706 705 705
752 750 749 747 746 745 744 743 742 741 740 739 738 737 736 735 733 732 731 730 729 728 727 726 725 723 722 721 720 719 718 717 717 715 714 714 713 712 712 711 710 710 709 709 708 708 708 708 707 707 706 706 705 705 704 705 704 703 703 702 702 702 702 702 702 702 702 702 702
753 751 750 748 747 746 745 743 742 741 740 739 738 737 736 735 733 732 732 731 729 728 727 725 724 722 721 720 719 717 717 715 714 713 712 711 710 710 709 708 708 707 707 706 706 706 705 705 704 703 702 702 702 701 701 701 701 700 699 699 699 698 698 698 699 699 699 698 698
754 752 751 750 748 747 745 744 743 742 741 739 738 737 736 735 733 732 732 730 729 727 726 725 723 722 721 719 718 717 715 714 712 711 710 708 708 707 706 706 705 705 704 703 703 703 702 702 701 700 699 699 698 698 697 697 697 697 696 696 696 695 694 694 694 695 695 695 695
756 754 752 751 749 748 746 745 743 742 741 740 738 737 736 735 734 733 732 730 728 727 726 724 723 722 721 719 717 716 714 712 711 709 707 706 705 704 703 702 702 702 701 701 701 700 700 698 697 697 696 695 695 694 694 693 693 693 692 692 692 692 691 690 690 690 690 691 691
757 755 753 751 750 748 747 745 744 742 741 740 739 738 737 736 734 733 732 730 729 727 726 724 723 722 721 719 717 715 713 711 709 708 706 705 703 702 701 700 699 698 698 698 698 697 696 695 694 693 693 692 692 691 691 690 690 689 688 688 689 688 687 686 685 685 686 686 687
757 755 753 752 750 748 747 746 744 743 742 741 740 738 737 736 734 733 732 731 729 728 726 725 723 722 721 719 717 715 712 710 708 707 706 704 703 702 700 699 697 697 696 695 695 694 693 692 691 690 689 688 688 687 687 687 687 686 685 684 684 684 684 683 682 681 681 681 681
757 755 754 752 751 749 747 746 745 744 743 742 740 739 738 736 735 733 732 731 729 728 727 725 723 722 720 719 717 714 712 710 708 707 705 704 703 702 700 698 697 696 694 693 692 691 690 689 687 687 685 684 683 683 683 683 682 682 681 680 680 680 680 680 678 677 677 676 676
757 756 754 752 751 750 748 747 746 745 743 742 741 740 738 737 735 734 732 731 729 728 727 725 723 722 720 718 716 714 712 710 708 707 705 704 703 702 701 699 697 695 694 692 691 689 688 687 685 684 682 681 680 679 678 678 677 677 676 675 675 675 675 676 675 673 672 672 672
757 756 755 753 752 751 750 748 747 746 745 743 742 740 739 737 736 734 733 732 730 728 727 725 724 722 720 718 716 714 712 710 708 707 706 705 704 703 701 700 698 696 693 692 690 689 688 686 685 683 681 679 677 676 674 673 672 672 671 670 669 669 669 670 670 669 668 667 667
758 757 756 754 753 752 751 750 748 747 746 744 742 741 740 738 737 735 733 732 730 729 727 725 723 722 720 718 716 714 712 710 709 707 706 705 704 703 702 700 698 696 694 692 690 688 687 685 684 682 681 679 677 674 672 670 668 667 666 665 664 663 664 664 665 665 664 662 662
760 758 757 755 754 753 752 751 749 748 746 745 743 742 740 739 737 736 734 732 731 729 727 726 724 722 720 718 717 715 713 711 710 708 707 706 705 704 702 701 699 697 695 692 690 688 686 684 682 681 679 677 676 673 671 668 665 662 661 660 659 658 658 659 659 659 659 657 657
761 759 758 757 756 754 753 752 750 748 747 745 744 742 741 739 737 736 735 733 732 730 728 726 724 723 721 719 717 716 714 713 712 710 708 707 706 704 703 701 699 697 695 693 691 688 686 684 682 680 678 676 674 671 669 666 663 660 657 655 654 652 652 652 653 654 653 652 652
762 761 759 758 757 755 754 752 751 749 747 746 744 742 741 739 738 737 735 734 732 731 729 727 725 724 722 720 718 717 716 714 713 711 710 708 706 705 703 701 699 697 695 693 691 688 686 683 681 679 677 674 672 669 667 664 661 658 655 652 650 648 647 646 647 648 648 648 647
763 762 760 759 757 756 754 753 751 749 748 746 744 743 741 740 738 737 736 734 733 731 729 727 726 724 723 721 719 718 716 715 713 712 710 708 707 705 703 701 699 697 694 692 690 687 685 682 680 678 675 673 670 667 665 662 659 656 653 650 647 645 642 642 641 642 642 642 642
764 762 761 759 758 756 755 753 751 749 748 746 744 743 741 740 739 737 736 734 733 731 730 728 726 725 723 722 720 718 716 714 713 712 710 709 707 705 703 701 699 696 694 692 689 687 684 682 679 677 674 672 669 667 664 661 658 655 652 648 645 642 640 638 637 636 636 636 637
765 763 762 760 758 756 755 753 751 749 747 746 745 743 742 740 739 737 736 734 733 731 730 728 727 725 723 722 720 718 717 714 712 711 709 708 707 705 703 701 698 696 694 692 690 687 685 683 680 677 674 671 669 666 663 661 657 654 651 648 644 641 637 635 633 632 631 631 631
765 763 762 760 758 757 755 753 751 750 748 747 745 744 742 740 739 737 736 734 732 731 730 728 726 725 723 722 720 718 717 715 713 711 709 707 706 704 702 700 698 696 694 692 690 688 686 684 681 678 675 672 669 666 663 661 658 655 652 649 645 640 636 632 629 627 627 626 626
765 763 761 760 758 756 755 753 752 750 748 747 745 743 742 740 739 737 736 734 732 731 729 728 726 724 723 721 720 718 717 715 713 712 709 707 705 703 701 699 697 695 693 691 689 687 685 683 681 678 676 672 669 666 663 660 658 655 653 650 646 641 636 631 626 623 622 621 620
764 762 761 759 757 756 754 753 751 750 748 747 745 743 742 741 739 737 736 734 732 731 729 728 726 725 723 722 720 718 717 715 713 712 710 707 705 703 701 699 697 695 693 691 688 686 684 682 680 677 675 672 669 666 663 660 657 655 652 649 646 642 638 633 628 623 620 617 615
764 762 761 758 757 755 754 752 751 749 748 746 745 744 742 741 739 737 736 734 733 731 729 728 727 725 723 722 720 719 717 716 714 712 710 708 706 704 702 699 697 695 692 690 688 686 683 681 678 676 674 672 669 666 663 660 657 654 651 648 645 642 638 633 629 625 621 617 614
765 763 761 759 757 756 754 753 752 750 749 747 746 744 742 741 739 737 736 734 732 731 730 728 727 725 724 722 721 719 717 716 714 712 710 708 706 704 702 699 697 695 692 690 688 685 683 680 677 675 672 670 668 665 662 659 656 652 650 647 643 640 636 632 628 624 620 617 613
765 764 762 761 759 758 757 755 754 752 751 749 747 745 743 741 739 738 736 735 733 732 731 729 728 726 724 722 721 719 717 716 714 712 710 708 706 704 702 699 697 695 692 690 688 686 683 680 677 674 672 669 666 663 660 657 654 651 648 645 641 638 634 630 626 622 618 615 611
767 765 764 762 761 760 758 757 755 753 752 750 748 746 744 742 740 739 737 735 734 732 731 729 727 726 724 722 721 719 717 715 713 712 710 708 706 704 702 699 697 694 692 690 688 685 683 680 677 674 671 668 665 662 658 655 652 649 646 642 639 636 632 628 624 621 617 614 610
768 766 765 763 762 760 758 757 755 753 752 750 748 746 744 742 741 739 737 736 734 732 730 728 726 725 723 721 720 718 717 715 713 712 710 708 706 703 701 699 697 694 692 690 687 685 682 680 677 674 671 667 664 660 657 653 650 647 643 640 637 633 630 627 623 620 616 613 610
768 766 765 763 761 759 758 756 754 752 751 749 747 746 744 742 740 738 737 735 733 732 730 728 726 724 722 721 719 717 716 714 712 711 709 707 705 703 701 698 696 693 692 689 687 684 682 679 676 672 669 666 663 659 655 652 648 644 641 637 634 631 628 626 623 619 616 612 609
767 766 764 762 761 759 757 755 754 752 750 749 747 745 743 742 739 737 736 734 733 731 730 728 727 725 723 722 720 717 715 713 712 710 708 706 704 702 700 697 695 693 691 688 686 683 680 677 674 671 668 665 661 657 654 650 646 642 639 636 632 629 627 624 621 618 615 612 608
767 765 763 762 760 758 757 755 753 752 750 748 746 745 743 741 739 737 736 734 732 731 729 728 727 725 723 722 720 717 715 713 711 709 707 705 703 701 699 696 694 692 690 687 685 682 679 676 673 670 667 663 660 656 652 648 644 641 637 634 631 627 625 622 619 616 613 610 607
767 765 763 762 760 758 757 755 753 751 749 748 746 744 742 741 739 737 736 734 732 730 729 727 725 724 722 720 719 717 715 713 711 708 707 704 702 700 697 695 692 691 688 686 683 681 678 675 672 669 665 662 658 655 651 647 643 640 636 632 629 626 623 620 617 614 612 608 605
767 765 763 762 760 758 757 755 753 751 749 747 746 744 742 741 739 737 736 734 732 730 728 727 725 723 722 720 718 717 715 713 711 708 706 704 702 699 697 694 691 689 687 685 682 679 677 673 671 667 664 661 657 654 650 646 642 639 635 632 628 625 622 619 616 613 610 607 604
767 766 764 762 760 758 757 755 753 751 749 748 746 745 743 741 739 737 736 734 732 730 728 727 725 723 722 720 718 717 715 713 711 709 706 703 701 699 696 693 690 688 686 684 681 678 675 672 669 667 663 660 657 653 649 645 642 638 634 631 627 624 621 618 615 612 609 606 603
767 766 764 762 761 759 757 755 754 752 750 748 746 745 743 741 740 738 737 735 733 732 729 727 726 724 722 720 718 716 714 713 711 709 706 703 701 699 696 693 690 687 685 683 680 677 674 672 668 666 663 660 656 652 648 645 641 637 634 630 627 622 619 616 613 611 607 604 602
767 766 764 763 761 759 757 756 754 753 751 749 747 745 743 742 740 739 737 736 734 732 730 728 726 724 722 721 718 716 714 712 710 708 706 703 701 698 696 693 690 687 684 682 679 677 673 671 668 665 662 659 655 652 648 644 640 637 633 630 626 622 618 614 612 609 606 603 600
767 766 764 763 761 759 758 756 754 753 751 750 748 746 744 742 741 739 737 736 734 732 731 729 727 725 723 721 719 716 714 711 709 707 705 703 700 697 695 692 689 686 683 681 678 676 673 670 667 664 661 658 655 652 648 644 640 636 632 629 626 622 617 613 610 607 604 602 599